Location: Daytona Beach
(29.2106°N, 81.0231°W)
Time: 22:27:18
(UTC-04:00)

PSAT 2 - Pass Details

Date: 26 September 2021
Orbit: 299 x 726 km, 28.5° (Epoch: 15 October)

Event Time Altitude Azimuth Distance (km) Brightness Sun altitude
Rises 20:24:39 0° 276° (W) 3,088 ? -15.9°
Reaches altitude 10° 20:27:07 10° 271° (W) 2,198 ? -16.5°
Maximum altitude 20:32:12 50° 197° (SSW) 929 ? -17.6°
Enters shadow 20:34:51 26° 136° (SE) 1,396 ? -18.1°
